Location: Marcé
(47.5801°N, 0.3280°W)
Time: 05:29:04
(UTC+01:00)

Envisat - Pass Details

Date: 26 October 2021
Orbit: 764 x 766 km, 98.2° (Epoch: 04 December)

Event Time Altitude Azimuth Distance (km) Brightness Sun altitude
Rises 06:42:40 0° 18° (NNE) 3,244 6.5 -19.7°
Reaches altitude 10° 06:45:05 10° 25° (NNE) 2,313 5.8 -19.3°
Maximum altitude 06:49:58 46° 98° (E) 1,030 4.1 -18.5°
Drops below altitude 10° 06:54:49 10° 172° (S) 2,295 5.6 -17.7°
Sets 06:57:12 0° 178° (S) 3,216 6.3 -17.3°
